Location: *
(46.0770°N, 1.6444°E)
Time: 22:12:12
(UTC+00:00)

Cosmos 1536 Rocket - Pass Details

Date: 16 September 2019
Orbit: 604 x 633 km, 82.5° (Epoch: 19 October)

Event Time Altitude Azimuth Distance (km) Brightness Sun altitude
Rises 18:43:31 0° 352° (N) 2,878 7.3 -7.7°
Reaches altitude 10° 18:45:45 10° 354° (N) 1,967 6.4 -8.1°
Maximum altitude 18:50:06 76° 80° (E) 630 3.5 -8.8°
Drops below altitude 10° 18:54:24 10° 167° (SSE) 1,947 5.9 -9.5°
Sets 18:56:36 0° 169° (SSE) 2,846 6.7 -9.9°
